Carmi, IL

2:41 AM CDT on April 20, 2018 (GMT -0500)
Carmi Municipal

Weather History for KCUL - September, 2013

Change the Weather History Date:

Monday, September 23, 2013

  Actual Average (KEHR) Record (KEHR)
Temperature  
Mean Temperature 61 °F -  
Max Temperature 76 °F 77 °F 96 °F (2010)
Min Temperature 46 °F 55 °F 35 °F (1983)
Degree Days  
Heating Degree Days 4    
Growing Degree Days 11 (Base 50)    
Moisture  
Dew Point 51 °F    
Average Humidity 74    
Maximum Humidity 97    
Minimum Humidity 41    
Precipitation  
Precipitation 0.00 in - - ()
Sea Level Pressure  
Sea Level Pressure 30.00 in    
Wind  
Wind Speed 3 mph (ENE)    
Max Wind Speed 10 mph    
Max Gust Speed -    
Visibility 10 miles    
Events      
Averages and records for this station are not official NWS values.
T = Trace of Precipitation, MM = Missing Value Source: NWS Daily Summary

Daily Weather History Graph

Daily Weather History Graph

Search for Another Location

Airport or City:

Astronomy

Sep. 23, 2013 Rise Set
Actual Time 6:41 AM CDT 6:47 PM CDT
Civil Twilight 6:15 AM CDT 7:13 PM CDT
Nautical Twilight 5:44 AM CDT 7:44 PM CDT
Astronomical Twilight 5:13 AM CDT 8:15 PM CDT
Moon 9:23 PM CDT (9/23) 10:55 AM CDT (9/23)
Length of Visible Light 12h 58m
Length of Day
12h 06m
Waning Gibbous, 81% of the Moon is Illuminated
Sep 23
Waning Gibbous
Sep 26
Last Quarter
Oct 4
New
Oct 11
First Quarter
Oct 18
Full

Hourly Weather History & Observations

Time (CDT) Temp. Dew Point Humidity Pressure Visibility Wind Dir Wind Speed Gust Speed Precip Events Conditions
12:15 AM 52.9 °F 50.0 °F 90% 29.98 in 10.0 mi Calm Calm - N/A   Clear
12:35 AM 53.2 °F 50.4 °F 90% 29.98 in 10.0 mi Calm Calm - N/A   Clear
12:55 AM 52.3 °F 49.6 °F 91% 29.98 in 10.0 mi Calm Calm - N/A   Clear
1:15 AM 52.5 °F 49.5 °F 89% 29.98 in 10.0 mi Calm Calm - N/A   Clear
1:35 AM 52.9 °F 50.7 °F 92% 29.98 in 10.0 mi Calm Calm - N/A   Clear
1:55 AM 52.7 °F 50.4 °F 92% 29.99 in 10.0 mi Calm Calm - N/A   Clear
2:15 AM 51.4 °F 49.5 °F 93% 29.99 in 10.0 mi Calm Calm - N/A   Clear
2:35 AM 49.6 °F 48.2 °F 95% 29.98 in 7.0 mi Calm Calm - N/A   Clear
2:55 AM 50.2 °F 48.7 °F 95% 29.98 in 10.0 mi Calm Calm - N/A   Clear
3:15 AM 49.6 °F 48.2 °F 95% 29.98 in 10.0 mi Calm Calm - N/A   Clear
3:35 AM 48.6 °F 47.3 °F 95% 29.98 in 10.0 mi Calm Calm - N/A   Clear
3:55 AM 49.3 °F 48.0 °F 95% 29.99 in 10.0 mi North 3.5 mph - N/A   Clear
4:15 AM 49.1 °F 47.8 °F 95% 29.99 in 10.0 mi North 3.5 mph - N/A   Clear
4:35 AM 49.6 °F 48.2 °F 95% 29.99 in 10.0 mi Calm Calm - N/A   Clear
4:55 AM 49.5 °F 48.4 °F 96% 29.99 in 10.0 mi Calm Calm - N/A   Clear
5:15 AM 48.6 °F 47.3 °F 95% 30.00 in 10.0 mi Calm Calm - N/A   Clear
5:35 AM 47.5 °F 46.2 °F 95% 30.00 in 10.0 mi Calm Calm - N/A   Clear
5:55 AM 48.6 °F 47.5 °F 96% 30.01 in 10.0 mi Calm Calm - N/A   Clear
6:15 AM 48.2 °F 47.1 °F 96% 30.02 in 7.0 mi Calm Calm - N/A   Clear
6:35 AM 48.4 °F 47.3 °F 96% 30.03 in 5.0 mi Calm Calm - N/A   Clear
6:55 AM 46.8 °F 45.9 °F 97% 30.03 in 3.0 mi Calm Calm - N/A   Clear
7:15 AM 47.5 °F 46.6 °F 97% 30.04 in 5.0 mi NE 3.5 mph - N/A   Clear
7:35 AM 50.0 °F 49.1 °F 97% 30.05 in 5.0 mi Calm Calm - N/A   Clear
7:55 AM 53.4 °F 52.3 °F 96% 30.05 in 10.0 mi NE 3.5 mph - N/A   Clear
8:15 AM 55.9 °F 53.8 °F 92% 30.05 in 7.0 mi Calm Calm - N/A   Clear
8:35 AM 59.2 °F 53.6 °F 82% 30.05 in 7.0 mi East 3.5 mph - N/A   Clear
8:55 AM 60.3 °F 54.1 °F 80% 30.06 in 10.0 mi East 5.8 mph - N/A   Clear
9:15 AM 62.6 °F 54.7 °F 75% 30.05 in 10.0 mi East 8.1 mph - N/A   Clear
9:35 AM 64.4 °F 53.6 °F 68% 30.05 in 10.0 mi East 6.9 mph - N/A   Clear
9:55 AM 66.4 °F 54.0 °F 64% 30.05 in 10.0 mi East 6.9 mph - N/A   Clear
10:15 AM 68.2 °F 53.6 °F 60% 30.05 in 10.0 mi East 6.9 mph - N/A   Clear
10:35 AM 68.9 °F 51.8 °F 54% 30.06 in 10.0 mi East 5.8 mph - N/A   Clear
10:55 AM 69.8 °F 52.0 °F 53% 30.05 in 10.0 mi ESE 9.2 mph - N/A   Clear
11:15 AM 70.3 °F 51.4 °F 51% 30.05 in 10.0 mi SE 8.1 mph - N/A   Clear
11:35 AM 70.7 °F 51.1 °F 50% 30.05 in 10.0 mi East 9.2 mph - N/A   Clear
11:55 AM 72.1 °F 51.4 °F 48% 30.04 in 10.0 mi ENE 9.2 mph - N/A   Clear
12:15 PM 72.7 °F 52.0 °F 48% 30.04 in 10.0 mi East 6.9 mph - N/A   Clear
12:35 PM 73.2 °F 51.6 °F 47% 30.03 in 10.0 mi East 4.6 mph - N/A   Clear
12:55 PM 73.4 °F 51.4 °F 46% 30.02 in 10.0 mi East 3.5 mph - N/A   Clear
1:15 PM 74.3 °F 52.0 °F 46% 30.02 in 10.0 mi East 6.9 mph - N/A   Clear
1:35 PM 74.1 °F 51.8 °F 46% 30.01 in 10.0 mi NNE 5.8 mph - N/A   Clear
1:55 PM 75.2 °F 51.3 °F 43% 30.00 in 10.0 mi East 4.6 mph - N/A   Clear
2:15 PM 75.2 °F 52.0 °F 44% 30.00 in 10.0 mi East 10.4 mph - N/A   Clear
2:35 PM 75.2 °F 50.2 °F 41% 29.99 in 10.0 mi East 5.8 mph - N/A   Clear
2:55 PM 76.1 °F 50.9 °F 41% 29.98 in 10.0 mi ENE 9.2 mph - N/A   Clear
3:15 PM 76.5 °F 52.3 °F 43% 29.98 in 10.0 mi East 9.2 mph - N/A   Clear
3:35 PM 76.1 °F 51.8 °F 43% 29.97 in 10.0 mi East 8.1 mph - N/A   Clear
3:55 PM 76.5 °F 51.6 °F 42% 29.98 in 10.0 mi East 8.1 mph - N/A   Clear
4:15 PM 76.3 °F 51.8 °F 42% 29.97 in 10.0 mi East 6.9 mph - N/A   Clear
4:35 PM 76.1 °F 52.2 °F 43% 29.97 in 10.0 mi East 9.2 mph - N/A   Clear
4:55 PM 76.1 °F 51.6 °F 42% 29.97 in 10.0 mi ESE 5.8 mph - N/A   Clear
5:15 PM 75.2 °F 52.7 °F 45% 29.97 in 10.0 mi East 6.9 mph - N/A   Clear
5:35 PM 73.8 °F 54.5 °F 51% 29.97 in 10.0 mi East 5.8 mph - N/A   Clear
5:55 PM 72.3 °F 55.6 °F 56% 29.97 in 10.0 mi East 6.9 mph - N/A   Clear
6:15 PM 70.9 °F 54.5 °F 56% 29.97 in 10.0 mi East 6.9 mph - N/A   Clear
6:35 PM 67.5 °F 55.6 °F 66% 29.97 in 10.0 mi ENE 5.8 mph - N/A   Clear
6:55 PM 64.4 °F 54.9 °F 71% 29.97 in 10.0 mi East 5.8 mph - N/A   Clear
7:15 PM 61.9 °F 54.7 °F 77% 29.97 in 10.0 mi ENE 6.9 mph - N/A   Clear
7:35 PM 61.9 °F 53.6 °F 74% 29.97 in 10.0 mi ENE 6.9 mph - N/A   Clear
7:55 PM 61.3 °F 53.6 °F 76% 29.97 in 10.0 mi ENE 5.8 mph - N/A   Clear
8:15 PM 59.2 °F 53.1 °F 80% 29.97 in 10.0 mi ENE 6.9 mph - N/A   Clear
8:35 PM 58.1 °F 53.1 °F 83% 29.98 in 10.0 mi ENE 6.9 mph - N/A   Clear
8:55 PM 55.6 °F 52.2 °F 88% 29.98 in 10.0 mi East 5.8 mph - N/A   Clear
9:15 PM 55.4 °F 52.2 °F 89% 29.98 in 10.0 mi ENE 6.9 mph - N/A   Clear
9:35 PM 55.6 °F 52.3 °F 89% 29.98 in 10.0 mi ENE 6.9 mph - N/A   Clear
9:55 PM 57.2 °F 52.5 °F 84% 29.99 in 10.0 mi ENE 4.6 mph - N/A   Clear
10:15 PM 54.5 °F 50.9 °F 88% 29.99 in 10.0 mi Calm Calm - N/A   Clear
10:35 PM 54.5 °F 51.3 °F 89% 29.99 in 10.0 mi Calm Calm - N/A   Clear
10:55 PM 54.3 °F 51.6 °F 91% 29.99 in 10.0 mi Calm Calm - N/A   Clear
11:15 PM 54.0 °F 50.7 °F 89% 29.98 in 10.0 mi Calm Calm - N/A   Clear
11:35 PM 53.2 °F 50.9 °F 92% 29.98 in 10.0 mi East 4.6 mph - N/A   Clear
11:55 PM 52.5 °F 50.4 °F 92% 29.97 in 10.0 mi Calm Calm - N/A   Clear